Location: Ch�nehutte
(47.3082°N, 0.1534°W)
Time: 04:15:08
(UTC+00:00)

Daily predictions for brighter satellites

Satellite Brightness Start Highest point End
(mag) Time Altitude Azimuth Time Altitude Azimuth Time Altitude Azimuth
Cosmos 1707 Rocket 3.4 00:00:38 10° N 00:05:01 83° E 00:05:18 76° SE
Okean 1 3.3 00:01:22 10° N 00:05:24 70° E 00:05:26 69° E
Gbstr 26 Del rocket 4.5 00:06:47 10° WNW 00:08:35 23° W 00:08:35 23° W
Cosmos 494 Rocket 4.1 00:13:18 52° SE 00:13:59 56° ESE 00:19:00 10° NNE
Cosmos 2285 Rocket 3.9 00:07:52 10° NNW 00:14:11 77° WSW 00:16:07 47° S
Cosmos 2333 Rocket 2.1 00:09:07 10° NNW 00:14:46 72° WSW 00:16:02 53° S
Meteor 1-25 Rocket 4.2 00:18:08 48° SSW 00:19:42 74° WNW 00:25:19 10° N
Cosmos 2084 3.8 00:20:13 48° W 00:20:58 57° NW 00:25:06 10° NE
ATLAS 5 CENTAUR R/B 2.9 00:17:42 10° NNW 00:23:00 53° NE 00:28:59 11° ESE
Cosmos 1805 Rocket 4.4 00:22:54 36° W 00:23:40 40° WNW 00:27:53 10° N
Cosmos 2360 Rocket 3.2 00:19:43 10° NW 00:24:33 30° WSW 00:25:09 29° WSW
Cosmos 1452 Rocket 3.7 00:21:06 10° NNW 00:26:14 55° WSW 00:26:58 50° SW
PSLV R/B 3.7 00:22:44 10° NNE 00:27:32 89° ESE 00:28:18 63° SSW
Cosmos 1666 3.4 00:29:45 44° E 00:29:45 44° E 00:33:20 10° NNE
Meteor 1-19 Rocket 4.2 00:24:41 10° NNW 00:30:24 70° W 00:31:46 51° SSW
Cosmos 2322 3.9 00:25:34 10° NW 00:31:10 57° WSW 00:32:15 49° SSW
Meteor 1-14 Rocket 4.3 00:30:32 48° SSE 00:31:57 67° E 00:37:30 10° NNE
Resurs 1-4 Rocket 3.7 00:37:55 10° NE 00:42:14 24° E 00:44:08 20° ESE
Cosmos 2297 Rocket 3.1 00:46:29 30° SE 00:47:54 35° ESE 00:53:00 10° NE
NOSS 3-1 (C) 4.2 00:43:03 10° NW 00:50:26 56° WSW 00:54:02 35° S
Cosmos 2237 Rocket 2.6 00:45:30 10° NNW 00:51:08 61° ENE 00:54:35 24° SE
Cosmos 2322 Rocket 4.4 00:51:03 10° W 00:51:44 10° W 00:52:15 10° W
Meteor 2-17 Rocket 4.4 00:54:55 43° S 00:57:02 80° E 01:03:07 10° NNE
Cosmos 2227 Rocket 3.3 00:56:52 27° SE 00:58:32 32° ESE 01:03:29 10° NE
TSX-5 4.3 00:59:09 44° ESE 00:59:09 44° ESE 01:03:02 10° NE
Cosmos 1110 Rocket 4.2 00:54:31 10° NNW 00:59:44 55° WSW 01:00:40 48° SW
Cosmos 1709 Rocket 4.2 00:58:20 37° SSE 01:00:51 67° E 01:07:10 10° NNE
Cosmos 1470 Rocket 3.4 01:00:37 63° SW 01:01:08 72° W 01:05:28 10° N
USA 229 DEB 3.9 00:54:00 10° NW 01:01:18 70° SW 01:05:34 29° SSE
USA 229 3.9 00:54:06 10° NW 01:01:23 70° SW 01:05:44 28° SSE
Meteor 2-4 Rocket 3.9 00:57:29 10° NNW 01:03:23 67° W 01:05:15 44° SSW
EO 1 Del DPAF 3.1 00:59:58 10° N 01:03:41 70° WNW 01:03:46 70° W
COSMOS 2487 4.3 01:07:03 21° WNW 01:07:22 21° WNW 01:10:03 10° N
Cosmos 1933 Rocket 3.5 01:07:30 61° S 01:08:16 88° E 01:12:46 10° N
Cosmos 1745 Rocket 4.1 01:06:16 40° SSW 01:08:33 68° W 01:14:49 10° N
NOSS 0 Rocket 3.9 01:02:50 10° NNW 01:09:03 71° WSW 01:11:32 38° S
Cosmos 1331 Rocket 4.3 01:05:55 10° NNW 01:10:58 48° WSW 01:11:48 44° SW
YAOGAN 11 4.1 01:10:25 55° S 01:11:26 84° WSW 01:16:01 10° NNW
Cosmos 1633 Rocket 4.1 01:10:54 31° W 01:11:40 33° WNW 01:15:40 10° N
Cosmos 1500 4.4 01:11:31 30° W 01:11:45 30° WNW 01:15:11 10° N
COSMOS 2428 3.3 01:06:36 10° NW 01:11:51 39° WSW 01:12:40 37° SW
MOZ.5/SAFIR/RUBIN 5/SL-8 3.7 01:11:26 46° SSE 01:12:51 86° ENE 01:17:36 10° NNW
Lacrosse 5 3.1 01:12:35 25° SE 01:13:01 25° SE 01:17:09 10° ENE
SL-16 R/B 3.6 01:08:39 10° NNW 01:13:53 36° NE 01:19:05 10° ESE
ADEOS Rocket 3.8 01:11:00 13° SE 01:15:39 42° ENE 01:20:48 10° N
CZ-2D R/B 2.8 01:11:21 10° NNE 01:16:30 46° E 01:18:42 30° SSE
Okean 1-7 2.9 01:13:03 10° N 01:17:19 89° W 01:18:05 60° S
SL-16 R/B 2.9 01:13:31 20° SE 01:17:48 62° ENE 01:23:53 10° N
COSMOS 2455 3.5 01:14:38 25° WSW 01:17:58 49° NW 01:23:50 10° NNE
Cosmos 1544 3.6 01:18:15 46° ESE 01:18:35 48° E 01:22:07 10° NNE
Helios 1A 2.9 01:18:25 60° S 01:19:10 81° WSW 01:23:25 10° NNW
Meteor 1-5 Rocket 4.3 01:18:51 41° SW 01:20:48 66° WNW 01:26:35 10° N
Okean 3 3.9 01:17:12 10° N 01:21:27 58° ENE 01:22:53 37° SE
NOSS 3-1 (A) 4.2 01:14:12 10° NW 01:21:37 58° WSW 01:26:38 26° S
Cosmos 2219 Rocket 3.3 01:17:41 10° NW 01:22:14 26° WSW 01:22:37 26° WSW
ARGOS Delta rocket 3.8 01:19:45 10° N 01:24:35 74° WNW 01:25:47 49° SW
ADEOS II 3.6 01:20:37 10° NE 01:25:04 27° E 01:28:02 17° SE
MINOTAUR IV R/B 4.5 01:20:58 10° NNW 01:25:33 81° WSW 01:26:47 48° SSE
Cosmos 1340 Rocket 2.7 01:27:12 61° WSW 01:27:38 68° WNW 01:31:33 10° N
CZ-4 R/B 3.9 01:24:27 10° N 01:29:25 74° WNW 01:31:02 43° SW
Cosmos 1743 3.4 01:33:42 37° SE 01:34:38 45° E 01:38:19 10° NNE
Cosmos 1269 Rocket 4.0 01:34:36 41° SSW 01:36:30 79° WNW 01:41:48 10° NNE
NOSS 2-2 (D) 4.4 01:32:45 10° NW 01:38:01 82° NE 01:45:27 10° SE
ASTEX 1 3.4 01:38:33 42° SSW 01:40:05 68° W 01:45:00 10° N
Helios 1B rocket 3.1 01:40:07 10° NNE 01:44:05 46° E 01:45:31 32° SSE
Cosmos 2219 3.2 01:42:03 36° SSW 01:44:30 78° ESE 01:50:17 10° NNE
Cosmos 1703 Rocket 4.0 01:42:03 10° NNW 01:46:11 43° W 01:46:53 40° WSW
Cosmos 1066 Rocket 4.3 01:40:55 10° NNW 01:46:46 72° W 01:49:38 31° S
Cosmos 2074 Rocket 4.4 01:43:18 23° SSE 01:47:08 58° E 01:53:13 10° NNE
Cosmos 2084 Rocket 3.3 01:50:22 10° NW 01:54:34 79° SW 01:57:52 17° SE
Meteor 1-11 Rocket 3.8 01:54:11 33° SSW 01:56:37 65° WNW 02:02:09 10° N
Cosmos 2333 Rocket 4.3 01:56:37 10° W 01:57:58 11° W 01:58:00 11° W
Cosmos 2181 Rocket 4.1 01:51:55 10° NNW 01:58:15 66° W 02:01:43 28° SSW
Cosmos 1992 Rocket 3.9 01:55:53 10° NNW 02:01:09 80° WSW 02:04:37 22° SSE
Cosmos 2082 4.1 02:02:39 26° S 02:05:46 55° ESE 02:11:23 10° NE
ATLAS 5 CENTAUR R/B 2.9 02:02:24 10° NW 02:07:39 37° WSW 02:10:23 26° SSW
Cosmos 1733 Rocket 3.6 02:05:38 25° SSE 02:08:03 56° E 02:12:25 10° NNE
Cosmos 1842 3.8 02:06:36 10° N 02:10:25 55° ENE 02:13:03 18° SSE
Cosmos 1980 4.4 02:05:22 10° NW 02:10:25 34° WSW 02:12:05 28° SW
CZ-4C R/B 3.7 02:04:37 10° NW 02:11:29 55° NE 02:19:32 10° ESE
Cosmos 1536 3.8 02:15:44 28° WSW 02:16:52 34° WNW 02:20:34 10° N
IDEFIX/ARIANE 42P 3.5 02:12:56 10° NNE 02:17:52 43° E 02:22:01 14° SSE
Resurs 1-4 Rocket 2.5 02:17:10 10° N 02:22:20 52° WNW 02:25:13 25° SW
Cosmos 2251 Rocket 3.5 02:27:52 24° SSW 02:31:04 88° ESE 02:36:25 10° NNE
Meteor 1-29 2.8 02:28:22 10° NNE 02:31:42 80° ESE 02:33:12 30° S
Cosmos 2297 Rocket 2.9 02:28:17 20° WSW 02:31:51 43° NW 02:37:15 10° NNE
Cosmos 2237 Rocket 3.4 02:30:21 10° NW 02:34:44 24° WSW 02:36:20 21° SW
NPP 4.0 02:30:12 10° N 02:35:25 51° WNW 02:38:43 22° SW
Okean 2 3.6 02:35:58 10° N 02:40:10 73° E 02:44:20 10° SSE
Nadezhda 3 Rocket 4.0 02:34:13 10° N 02:40:37 83° W 02:46:57 10° S
Cosmos 1238 Rocket 2.5 02:40:33 22° S 02:42:17 62° E 02:45:36 10° NNE
Cosmos 2227 Rocket 2.8 02:38:41 19° WSW 02:42:24 46° NW 02:47:51 10° NNE
Cosmos 2221 Rocket 4.0 02:40:29 10° NNW 02:44:51 47° W 02:47:38 21° SSW
BREEZE-M DEB (TANK) 4.3 02:38:45 17° SW 02:46:48 51° SSE 02:50:25 10° E
Timation 2 Rocket 4.3 02:46:39 19° SW 02:50:55 54° NW 02:56:56 10° NNE
Cosmos 2327 Rocket 4.5 02:46:03 16° SSW 02:51:07 78° W 02:57:18 10° N
CZ-4C R/B 3.6 02:47:35 10° SSE 02:51:37 74° ENE 02:55:53 10° N
USA 267 4.4 02:47:43 10° E 02:53:53 47° NNE 03:00:06 10° NW
Meteor 2-9 Rocket 4.1 02:51:21 18° SSW 02:55:23 71° WNW 03:00:45 10° N
Lacrosse 5 2.0 02:51:47 18° WSW 02:55:35 74° NW 03:00:41 10° NE
CZ-2D R/B 3.3 02:51:47 10° N 02:56:21 30° WNW 03:00:01 15° WSW
SL-16 R/B 2.6 02:52:46 10° NW 02:58:05 42° WSW 03:03:21 10° S
Cosmos 1140 Rocket 3.9 02:54:33 13° S 02:59:11 63° ESE 03:04:23 10° NNE
ADEOS Rocket 3.6 02:57:57 17° SW 03:01:21 30° W 03:06:11 10° NW
SL-16 R/B 3.6 02:58:37 17° SW 03:01:50 25° W 03:06:49 10° NW
ARIANE 5 R/B 3.3 02:58:30 10° NNE 03:03:33 52° E 03:08:36 10° S
ADEOS II 2.6 02:59:56 10° N 03:04:57 46° WNW 03:08:58 15° SW
CZ-4B R/B 4.4 03:01:20 10° NNE 03:06:01 44° E 03:10:35 10° S
IRS-1C 4.4 03:02:22 10° NNE 03:07:43 69° ESE 03:13:01 10° S
Cosmos 1674 Rocket 3.9 03:03:33 10° NNW 03:07:47 47° W 03:11:40 12° SSW
ATLAS CENTAUR R/B 3.0 03:07:29 10° S 03:10:32 24° ESE 03:13:43 10° ENE
NOSS 3-3 (A) 4.4 03:05:31 12° SSW 03:10:39 55° ESE 03:16:57 10° NE
NOSS 3-3 (C) 4.4 03:05:38 12° SSW 03:10:45 54° ESE 03:17:02 10° NE
Cosmos 2263 Rocket 2.5 03:05:29 11° SSW 03:10:49 66° ESE 03:16:28 10° NNE
Cosmos 2154 Rocket 4.3 03:09:01 14° SSW 03:14:09 50° WNW 03:20:13 10° N
Cosmos 1461 3.3 03:10:48 14° SSW 03:14:39 68° ESE 03:19:06 10° NE
Meteor 1-28 Rocket 4.2 03:12:37 16° SW 03:14:49 27° W 03:18:03 10° NW
IRS-1D 3.9 03:11:47 10° N 03:16:31 46° WNW 03:20:43 13° SW
Cosmos 1975 3.5 03:13:47 16° SW 03:16:45 40° WNW 03:20:38 10° N
Helios 1B rocket 4.2 03:16:05 10° NNW 03:19:00 19° WNW 03:21:48 11° WSW
Cosmos 1975 Rocket 3.4 03:20:51 10° N 03:25:16 68° E 03:29:37 10° SSE
In-Cosmos 22 4.3 03:20:05 10° NNW 03:25:50 68° W 03:31:31 10° S
KORONAS-FOTON 3.9 03:24:28 10° N 03:28:24 84° E 03:32:20 10° S
Cosmos 1378 Rocket 4.4 03:25:46 10° NNW 03:29:40 32° W 03:33:31 10° SSW
GEOS 3 Rocket 3.7 03:28:15 10° SSE 03:33:31 58° SW 03:38:46 10° NW
Cosmos 1707 3.4 03:30:46 10° NNW 03:34:17 35° W 03:37:47 10° SSW
SL-8 R/B 4.2 03:30:01 11° SW 03:34:21 49° SSE 03:39:00 10° ENE
Cosmos 44 3.4 03:30:52 10° NW 03:36:09 72° WSW 03:41:05 10° SSE
Cosmos 1908 Rocket 3.9 03:33:23 10° SSW 03:37:33 46° WNW 03:41:45 10° N
Cosmos 1943 3.2 03:33:14 10° NNW 03:38:57 77° WSW 03:44:38 10° SSE
Cosmos 407 Rocket 3.8 03:37:38 10° SW 03:42:51 55° WNW 03:48:02 10° NNE
Meteor 1-12 Rocket 4.4 03:38:23 10° S 03:44:01 83° E 03:49:47 10° NNE
MOS 1 Rocket 4.4 03:41:52 10° SSE 03:46:49 57° ENE 03:52:02 10° N
BREEZE-M DEB (TANK) 2.6 03:44:08 10° W 03:47:09 46° SSW 03:50:11 10° ESE
Cosmos 1959 Rocket 4.5 03:41:37 10° S 03:47:44 81° W 03:53:57 10° N
IRS-P3 4.4 03:43:01 10° N 03:48:15 57° WNW 03:53:28 10° SSW
USA 281 3.7 03:42:01 10° SE 03:48:31 67° ENE 03:55:02 10° NNW
Cosmos 1766 4.2 03:45:41 10° S 03:49:26 49° E 03:53:13 10° NNE
MSX 4.3 03:46:17 10° N 03:51:45 47° WNW 03:57:11 10° SW
SL-8 Rocket 4.1 03:47:33 10° SSW 03:53:39 61° WNW 03:59:46 10° N
Cosmos 1733 3.4 03:51:04 10° S 03:54:54 75° E 03:58:45 10° NNE
Cosmos 2366 rocket 4.1 03:49:15 10° SSW 03:55:36 72° W 04:01:59 10° N
